BANDAR DOMINO QQ

Jackpot

Texas Poker Multi Jackpot System

Kini Telah hadir Jackpot SUPER ROYAL FLUSH

Kini Telah hadir Jackpot 2000 (khusus table VIP keatas).

Ikutilah global jackpot yang tersedia di system kami, dengan system jackpot terbaru dan pertama di indonesia, anda dapat membeli jackpot dengan harga 100 rupiah saja dan menangkan hadiahnya hingga puluhan juta rupiah.

Jackpot bukanlah suatu keharusan untuk dibeli, namun kami memberikan suatu fitur tambahan untuk member tercinta dari www.dominoqiu.com.

Terdapat tiga pilihan harga jackpot yang bisa anda beli yaitu :100,500,1000 dan 2000(khusus table VIP Keatas) rupiah.

Hadiah dari Multi jackpot system www.dominoqiu.com

  1. full house x 10 harga jackpot yang anda beli.
      (contoh:anda membeli 1000 maka:1000 X10 = 10.000)
  2. four of kind x 250 harga jackpot yang anda beli
      (contoh:anda membeli 1000 maka:1000 X250 = 250.000)
  3. Straight flush x 1200
      (contoh:anda membeli 1000 maka:1000 X1200 = 1.200.000)
  4. Royal flush x 10000 harga jackpot yang anda beli
      (contoh:anda membeli 1000 maka:1000 X10000 = 10.000.000)
  5. SUPER ROYAL FLUSH x 30000 harga jackpot yang anda beli
      (contoh:anda membeli 1000 maka:1000 X30000 = 30.000.000)

Kondisi kartu

  1. full house adalah kondisi kartu dimana kartu anda dan kartu tengah dengan total 7 kartu bisa mendapatkan nilai 5 kartu dengan kombinasi 1 tris(three of kind) dan 1 pair, contoh 3 kartu 10 dan 2 kartu 5
  2. Four of kind adalah kondisi kartu dimana kartu anda dan kartu tengah dengan total 7 kartu bisa mendapatkan nilai 5 kartu dengan kombinasi 4 kartu yang sama jumlah dan 1 kartu apapun juga contoh anda mendapatkan 4 buah kartu angka 3 dan 1 kartu apapun.
  3. Staright flush adalah kondisi kartu dimana kartu anda dan kartu tengah dengan total 7 kartu bisa mendapatkan nilai 5 kartu dengan kombinasi seri / staright dengan kembang yang sama contoh : urutan kartu dari angka 5, 6, 7, 8 , 9 10 dengan kembang yg sama misalnya as hati
  4. Royal flush adalah kondisi kartu dimana kartu anda dan kartu tengah dengan total 7 kartu bisa mendapatkan nilai 5 kartu dengan kombinasi seri / staright dengan kembang yang sama tetapi kartu tersebut haruslah dimulai dari 10. contoh 10, Queen, Jack, King dan aces dengan kembang yang sama
  5. Super Royal flush adalah kondisi kartu dimana Kedua kartu anda digabung dengan 3 kartu pertama meja haruslah royal flush. contoh kartu anda 10,Queen kembang sama dan 3 kartu pertama meja adalah Jack, King dan aces dengan kembang yang sama

Demikian adalah penjelasan dari Multi Jackpot www.dominoqiu.com terima kasih dan selamat bermain salam hoki dari kami

Texas Poker Jackpot Winner

TOP SUPER ROYAL FLUSH
No.TanggalNamaPriceWin
129/05 19:19TALITA77Super Royal flush15,000,000
229/05 18:01PADO111111Super Royal flush3,000,000
328/05 22:39P07EKOBTVASuper Royal flush60,000,000
428/05 15:53REDDEVIL13Super Royal flush15,000,000
528/05 14:09WAJUSuper Royal flush60,000,000
TOP ROYAL FLUSH
No.TanggalNamaPriceWin
130/05 03:56WILONA03Royal flush1,000,000
230/05 03:15GOGOHI69Royal flush10,000,000
330/05 03:07JO100Royal flush1,000,000
430/05 03:03XINGLIONGRoyal flush1,000,000
530/05 02:41RESTIHRoyal flush5,000,000
TOP STRAIGHT FLUSH
No.TanggalNamaPriceWin
130/05 03:57GDRAGON88Straight Flush600,000
230/05 03:55BLACK005Straight Flush120,000
330/05 03:48FUELLZXXStraight Flush600,000
430/05 03:46NYEMIRRStraight Flush600,000
530/05 03:42UN2LZKXEZQStraight Flush120,000
LATEST JACKPOT
No.TanggalNamaPriceWin
130/05 03:58CURATMARUTFull House1,000
230/05 03:58BACOK33Full House1,000
330/05 03:58CHASBOYZFull House1,000
430/05 03:58JARED11Full House5,000
530/05 03:58GATEL89Full House10,000
630/05 03:58GAINFull House1,000
730/05 03:58KEONG82Full House10,000
830/05 03:58XSINGA77Four Of A Kind250,000
930/05 03:58ALADENFull House10,000
1030/05 03:58WALANG245Four Of A Kind250,000
1130/05 03:58BUMIBOLFull House5,000
1230/05 03:58BORMELO007Full House5,000
1330/05 03:57HADE129Full House1,000
1430/05 03:57NADA008Full House5,000
1530/05 03:57GDRAGON88Straight Flush600,000
1630/05 03:57HOKYA11Full House5,000
1730/05 03:57OJ4N02Full House1,000
1830/05 03:57ARTEM86Full House1,000
1930/05 03:57IZ337635Full House10,000
2030/05 03:57JABOGARFull House1,000
2130/05 03:57POKISFull House1,000
2230/05 03:57KECRIK_Full House5,000
2330/05 03:57LOGIKA171Full House5,000
2430/05 03:57BGJACK23Full House1,000
2530/05 03:57BIENGUFull House5,000
2630/05 03:57M3H4WCRRV6Full House1,000
2730/05 03:57KALERA01Full House5,000
2830/05 03:57LEGENDADDYFull House10,000
2930/05 03:57ID2011Full House5,000
3030/05 03:57PILIRFull House5,000
3130/05 03:57RAIMFull House1,000
3230/05 03:57DYMITRIS99Full House1,000
3330/05 03:57RUDIJOSSFull House1,000
3430/05 03:57KEVIN555Full House5,000
3530/05 03:57UCUV737Full House5,000
3630/05 03:57B11DIFull House5,000
3730/05 03:57MWR88Full House1,000
3830/05 03:57SATPAM_86Full House10,000
3930/05 03:57LMU5AC2ZHNFull House10,000
4030/05 03:57XSINGA77Full House10,000
4130/05 03:57LINCE99Full House1,000
4230/05 03:56ADM29Full House5,000
4330/05 03:56PASHUBERFull House5,000
4430/05 03:56NUFUS993Full House5,000
4530/05 03:56SMART009Full House10,000
4630/05 03:56BORMELO007Full House1,000
4730/05 03:56VORDSSFull House5,000
4830/05 03:56JUMMY41Four Of A Kind125,000
4930/05 03:56K0KNO7RGA3Full House5,000
5030/05 03:56B11DIFull House5,000

Domino Multi Jackpot System

Ikutilah global jackpot yang tersedia di system kami, dengan system jackpot terbaru dan pertama di indonesia, anda dapat membeli jackpot dengan harga 100 rupiah saja dan menangkan hadiahnya hingga puluhan juta rupiah.

Jackpot bukanlah suatu keharusan untuk dibeli, namun kami memberikan suatu fitur tambahan untuk member tercinta dari www.dominoqiu.com.

Terdapat tiga pilihan harga jackpot yang bisa anda beli yaitu :100,500 dan 1000 rupiah.

Hadiah dari Multi jackpot system www.dominoqiu.com

  1. Murni Kecil x 50 harga jackpot yang anda beli.
      (contoh:anda membeli 1000 maka:1000 X 50 = 50.000)
  2. Murni Besar x 50 harga jackpot yang anda beli
      (contoh:anda membeli 1000 maka:1000 X 50 = 50.000)
  3. BALAK x 100 harga jackpot yang anda beli
      (contoh:anda membeli 1000 maka:1000 X 100 = 100.000)
  4. ENAM DEWA x 6666 harga jackpot yang anda beli
      (contoh:anda membeli 1000 maka:1000 X 6666 = 6.666.000)

Demikian adalah penjelasan dari Multi Jackpot www.dominoqiu.com terima kasih dan selamat bermain salam hoki dari kami

Domino Jackpot Winner

TOP ENAM DEWA
No.TanggalNamaPriceWin
130/05 02:52COS47murni enam3,333,000
230/05 02:10BAGASAmurni enam6,666,000
330/05 01:16PETIR171murni enam6,666,000
429/05 23:42PANDOT87murni enam6,666,000
529/05 22:28PIT03murni enam6,666,000
TOP BALAK
No.TanggalNamaPriceWin
130/05 03:55PANDA77777balak10,000
230/05 03:53TEMPALO11balak50,000
330/05 03:50ESPOTbalak100,000
430/05 03:47SATUSSEKETbalak100,000
530/05 03:43UNSAR23balak50,000
LATEST JACKPOT
No.TanggalNamaPriceWin
130/05 03:58C3TWCF4SMYmurni besar5,000
230/05 03:55PANDA77777balak10,000
330/05 03:53TEMPALO11balak50,000
430/05 03:50ESPOTbalak100,000
530/05 03:47MDRGEDAmurni besar50,000
630/05 03:47SATUSSEKETbalak100,000
730/05 03:46LILLY_SHENmurni besar50,000
830/05 03:44JUANSIS8murni kecil25,000
930/05 03:43MILIK_UJNGmurni kecil50,000
1030/05 03:43UNSAR23balak50,000
1130/05 03:42CISA111balak100,000
1230/05 03:38KPN72murni kecil25,000
1330/05 03:37SREEG18murni kecil25,000
1430/05 03:35PANDA77777murni besar5,000
1530/05 03:34PETTERSONmurni besar25,000
1630/05 03:34ERULmurni besar25,000
1730/05 03:32EFSUZQGDPVmurni kecil50,000
1830/05 03:31BANG_S4Tmurni besar50,000
1930/05 03:31EPEW06murni besar25,000
2030/05 03:280JJK6BIB2Nmurni besar50,000
2130/05 03:26DWBTTOY692murni kecil50,000
2230/05 03:25FAJRI78murni besar50,000
2330/05 03:23ACHAY74murni besar5,000
2430/05 03:20JEGER241murni besar50,000
2530/05 03:19UWO_23murni besar5,000
2630/05 03:19LABI01LABImurni kecil50,000
2730/05 03:19YONGKRO12murni besar25,000
2830/05 03:18EPEW06murni besar25,000
2930/05 03:17TILE1988balak100,000
3030/05 03:16CAK9murni kecil25,000
3130/05 03:16CLAVIRGOmurni kecil50,000
3230/05 03:15UANGPARKIRmurni kecil50,000
3330/05 03:15RIS99murni besar50,000
3430/05 03:14OA130513murni kecil5,000
3530/05 03:14SINDI123murni kecil50,000
3630/05 03:11UWO_23balak10,000
3730/05 03:08EFSUZQGDPVbalak100,000
3830/05 03:08PERSESA_86murni kecil50,000
3930/05 03:07JS5RQSSYZFmurni besar25,000
4030/05 03:07CLAVIRGOmurni besar50,000
4130/05 03:04IKHSAN03murni besar5,000
4230/05 03:01ONGE888murni besar50,000
4330/05 02:58ENOO29balak50,000
4430/05 02:58NARIKMANGmurni besar25,000
4530/05 02:57USMAN1234balak50,000
4630/05 02:56YONGKRO12murni besar25,000
4730/05 02:55EPEW06murni besar5,000
4830/05 02:54G2G2G2murni kecil25,000
4930/05 02:54AQKIUmurni kecil25,000
5030/05 02:53ARYAN999murni kecil50,000

Ceme Multi Jackpot System

Jackpot dilihat dari gabungan kartu pemain dengan kartu bandar. Bandar harus membeli jackpot sebanyak jumlah player yang sedang duduk. Sebagai contoh bila terdapat 3 pemain duduk bermain, dan bandar memutuskan untuk membeli jackpot Rp 1.000, maka pada periode tersebut bandar akan membeli jackpot sebanyak 3xRp1.000 = Rp3.000.

Jackpot bukanlah suatu keharusan untuk dibeli, namun kami memberikan suatu fitur tambahan untuk member tercinta dari www.dominoqiu.com.

Terdapat tiga pilihan harga jackpot yang bisa anda beli yaitu :100,500 dan 1000 rupiah.

Hadiah dari Multi jackpot system www.dominoqiu.com

  1. Murni Kecil x 50 harga jackpot yang anda beli.
      (contoh:anda membeli 1000 maka:1000 X 50 = 50.000)
  2. Murni Besar x 50 harga jackpot yang anda beli
      (contoh:anda membeli 1000 maka:1000 X 50 = 50.000)
  3. BALAK x 200 harga jackpot yang anda beli
      (contoh:anda membeli 1000 maka:1000 X 200 = 200.000)
  4. ENAM DEWA x 6666 harga jackpot yang anda beli
      (contoh:anda membeli 1000 maka:1000 X 6666 = 6.666.000)

Demikian adalah penjelasan dari Multi Jackpot www.dominoqiu.com terima kasih dan selamat bermain salam hoki dari kami

Ceme Jackpot Winner

TOP ENAM DEWA
No.TanggalNamaPriceWin
130/05 03:51LAKmurni enam6,666,000
230/05 03:25TESLAmurni enam3,333,000
330/05 03:25MABAKER19murni enam3,333,000
430/05 02:57ARA280312murni enam666,600
530/05 02:18AALLUNGmurni enam6,666,000
TOP BALAK
No.TanggalNamaPriceWin
130/05 03:54ZEROBE5TIbalak200,000
230/05 03:54MIKIARYAbalak200,000
330/05 03:47ADENGbalak200,000
430/05 03:42SHUL01balak200,000
530/05 03:40AL3S44balak20,000
LATEST JACKPOT
No.TanggalNamaPriceWin
130/05 03:58RAMA909murni kecil50,000
230/05 03:58RGREENmurni besar50,000
330/05 03:58ZHAFRAN999murni besar5,000
430/05 03:56MBOA85murni besar50,000
530/05 03:56WAYIN888murni besar50,000
630/05 03:56BHOGELHOKImurni besar25,000
730/05 03:56JINGNAM88murni besar50,000
830/05 03:56REZPHECTORmurni besar25,000
930/05 03:55UCIEL86murni besar50,000
1030/05 03:55UCIEL86murni besar50,000
1130/05 03:54ARCHEZAmurni kecil50,000
1230/05 03:54JINGNAM88murni besar50,000
1330/05 03:54REZPHECTORmurni besar25,000
1430/05 03:54MEISYA11murni kecil50,000
1530/05 03:54A1KM1murni kecil25,000
1630/05 03:54ZEROBE5TIbalak200,000
1730/05 03:54MIKIARYAbalak200,000
1830/05 03:52EYANGQBULmurni kecil50,000
1930/05 03:52JINGNAM88murni besar50,000
2030/05 03:52JINGNAM88murni besar50,000
2130/05 03:52REZPHECTORmurni besar25,000
2230/05 03:51POSIPONmurni besar25,000
2330/05 03:51ARCHEZAmurni besar50,000
2430/05 03:51ZEROBE5TImurni kecil50,000
2530/05 03:51ZEROBE5TImurni kecil50,000
2630/05 03:51LAKmurni enam6,666,000
2730/05 03:50LURAH6789murni kecil50,000
2830/05 03:48CASANO78murni kecil50,000
2930/05 03:48B3DO3Lmurni kecil50,000
3030/05 03:48XXSAMYPZ8Jmurni kecil25,000
3130/05 03:48SHUL01murni kecil50,000
3230/05 03:48TESLAmurni kecil25,000
3330/05 03:48ZHAIRY09murni kecil5,000
3430/05 03:48COMBLACKmurni kecil5,000
3530/05 03:47ADENGbalak200,000
3630/05 03:46IZOEL19murni besar50,000
3730/05 03:46J3MBOETmurni besar50,000
3830/05 03:46MURI14murni besar50,000
3930/05 03:46WAYIN888murni kecil50,000
4030/05 03:46UBAS99murni kecil25,000
4130/05 03:45LOPCOImurni besar25,000
4230/05 03:44BERRR24murni kecil5,000
4330/05 03:43ZELDA77murni besar5,000
4430/05 03:43SHUL01murni kecil50,000
4530/05 03:42AL3S44murni kecil5,000
4630/05 03:42MBOA85murni kecil50,000
4730/05 03:42MEMBER87murni kecil5,000
4830/05 03:42SHUL01murni kecil50,000
4930/05 03:42SHUL01balak200,000
5030/05 03:41CASANO78murni kecil50,000